Regional Weather Roundup
Issued by NWS Goodland, KS

Home | Current Version | Previous Version | Graphics & Text | Print | Product List | Glossary On
Versions: 1 2 3 4 5 6 7 8 9 10 11 12 13 14 15 16 17 18 19 20 21 22 23 24 25 26 27 28 29 30 31 32 33 34 35 36 37 38 39 40 41 42 43 44 45 46 47 48 49 50
000
ASUS43 KGLD 310108
RWRGLD

GOODLAND FORECAST AREA HOURLY WEATHER ROUNDUP
NATIONAL WEATHER SERVICE GOODLAND KS
600 PM MST FRI JAN 30 2015

...OFFICIAL OBSERVATIONS...

CITY           SKY/WX    TMP DP  RH WIND       PRES   REMARKS
GOODLAND KS    CLOUDY    36  32  85 S20G26    30.15S
HILL CITY KS   CLOUDY    39  32  76 S10       30.25R
IMPERIAL NEB   CLOUDY    41  29  62 S13       30.13R
MCCOOK NEB     CLOUDY    40  33  76 S10       30.19R
AKRON CO       CLOUDY    38  29  70 N7        30.06S
BURLINGTON CO  CLOUDY    35  31  85 S13G22    30.12S
LIMON CO       CLOUDY    36  30  79 S6        30.06F
$$

...UNOFFICIAL OBSERVATIONS...

CITY           SKY/WX    TMP DP  RH WIND       PRES   REMARKS
COLBY KS       DRIZZLE   37  37 100 S15G21    30.20R
GOVE KS          N/A     38  32  79 MISG        N/A
NORTON KS      CLOUDY    37  30  75 SE9       30.22R
SHARON SPRINGS   N/A     33  31  94 S15         N/A
KIT CARSON CO    N/A     32  29  90 MISG        N/A
$$


USA.gov is the U.S. government's official web portal to all federal, state and local government web resources and services.